Terug naar catalogus

ATLAS 5 CENTAUR DEB

ActiefHEO
NORAD 46865·DEBRIS·🇺🇸 United States

Gelanceerd Oct 17, 2018 vanaf Cape Canaveral Space Force Station

Loading…

Volgende Passages (komende 24 uur)

TLE

VersSource: Space-Track

Epoch: Sep 11, 2026, 09:58 UTC

1 46865U 18079DW  26254.41551362 -.00000183  00000-0  00000-0 0  9993
2 46865  13.2228  22.5627 4529991 348.0659   3.9190  1.88836544 40404

Volg ATLAS 5 CENTAUR DEB in realtime met AllMySat

Download on the App Store